Weather History for Valdez Airport, AK

Change the Weather History Date:

Saturday, June 15, 2013

  Actual Average Record
Temperature  
Mean Temperature 55 °F -  
Max Temperature 68 °F 60 °F 83 °F (1969)
Min Temperature 42 °F 45 °F 35 °F (1997)
Degree Days  
Heating Degree Days 10    
Growing Degree Days 5 (Base 50)    
Moisture  
Dew Point 42 °F    
Average Humidity 63    
Maximum Humidity 87    
Minimum Humidity 43    
Precipitation  
Precipitation 0.00 in - - ()
Sea Level Pressure  
Sea Level Pressure 30.27 in    
Wind  
Wind Speed 3 mph (SW)    
Max Wind Speed 8 mph    
Max Gust Speed -    
Visibility 10 miles    
Events      
Averages and records for this station are not official NWS values.
T = Trace of Precipitation, MM = Missing Value Source: NWS Daily Summary

Daily Weather History Graph

Daily Weather History Graph

Search for Another Location

Airport:

Trip Planner

Search our weather history database for the weather conditions in past years. The results will help you decide how hot, cold, wet, or windy it might be!

Date:

Astronomy

Jun. 15, 2013 Rise Set
Actual Time 4:07 AM AKDT 11:24 PM AKDT
Civil Twilight 2:17 AM AKDT 1:13 AM AKDT
Nautical Twilight Sun does not rise Sun does not rise
Astronomical Twilight Sun does not rise Sun does not rise
Moon 12:52 PM AKDT (6/15) 1:11 AM AKDT (6/15)
Length of Visible Light 22h 55m
Length of Day
19h 17m
Waxing Crescent, 41% of the Moon is Illuminated
Jun 15
Waxing Crescent
Jun 16
First Quarter
Jun 23
Full
Jun 29
Last Quarter
Jul 7
New

Hourly Weather History & Observations

Time (AKDT) Temp. Windchill Dew Point Humidity Pressure Visibility Wind Dir Wind Speed Gust Speed Precip Events Conditions
12:16 AM 46.4 °F 44.3 °F 39.2 °F 76% 30.30 in 10.0 mi East 4.6 mph - N/A   Clear
12:36 AM 46.4 °F - 39.2 °F 76% 30.31 in 10.0 mi Calm Calm - N/A   Clear
12:56 AM 44.6 °F 42.2 °F 39.2 °F 81% 30.31 in 10.0 mi East 4.6 mph - N/A   Clear
1:16 AM 44.6 °F 42.2 °F 39.2 °F 81% 30.31 in 10.0 mi ENE 4.6 mph - N/A   Clear
1:36 AM 44.6 °F 42.2 °F 39.2 °F 81% 30.31 in 10.0 mi East 4.6 mph - N/A   Clear
1:56 AM 44.6 °F 43.1 °F 37.4 °F 76% 30.31 in 10.0 mi East 3.5 mph - N/A   Clear
2:16 AM 44.6 °F - 37.4 °F 76% 30.31 in 10.0 mi Calm Calm - N/A   Clear
2:36 AM 42.8 °F - 37.4 °F 81% 30.31 in 10.0 mi Calm Calm - N/A   Clear
2:56 AM 42.8 °F - 39.2 °F 87% 30.31 in 10.0 mi Calm Calm - N/A   Clear
3:16 AM 42.8 °F 41.1 °F 37.4 °F 81% 30.31 in 10.0 mi East 3.5 mph - N/A   Clear
3:36 AM 42.8 °F - 39.2 °F 87% 30.31 in 10.0 mi Calm Calm - N/A   Clear
3:56 AM 42.8 °F - 37.4 °F 81% 30.31 in 10.0 mi Calm Calm - N/A   Clear
4:16 AM 42.8 °F - 39.2 °F 87% 30.31 in 10.0 mi Calm Calm - N/A   Clear
4:36 AM 42.8 °F - 37.4 °F 81% 30.31 in 10.0 mi Calm Calm - N/A   Clear
4:56 AM 42.8 °F - 39.2 °F 87% 30.31 in 10.0 mi Calm Calm - N/A   Clear
5:16 AM 42.8 °F - 35.6 °F 76% 30.31 in 10.0 mi Calm Calm - N/A   Clear
5:36 AM 42.8 °F - 37.4 °F 81% 30.31 in 10.0 mi Calm Calm - N/A   Clear
5:56 AM 42.8 °F 41.1 °F 37.4 °F 81% 30.31 in 10.0 mi ENE 3.5 mph - N/A   Clear
6:16 AM 42.8 °F - 39.2 °F 87% 30.31 in 10.0 mi Calm Calm - N/A   Clear
6:36 AM 44.6 °F - 41.0 °F 87% 30.31 in 10.0 mi Calm Calm - N/A   Clear
6:56 AM 46.4 °F - 42.8 °F 87% 30.31 in 10.0 mi Calm Calm - N/A   Partly Cloudy
7:16 AM 46.4 °F - 42.8 °F 87% 30.31 in 10.0 mi Calm Calm - N/A   Partly Cloudy
7:36 AM 48.2 °F - 42.8 °F 82% 30.31 in 10.0 mi Calm Calm - N/A   Partly Cloudy
7:56 AM 50.0 °F - 41.0 °F 71% 30.31 in 10.0 mi Calm Calm - N/A   Partly Cloudy
8:16 AM 51.8 °F - 41.0 °F 67% 30.30 in 10.0 mi Calm Calm - N/A   Partly Cloudy
8:36 AM 53.6 °F - 42.8 °F 67% 30.30 in 10.0 mi Calm Calm - N/A   Partly Cloudy
8:56 AM 53.6 °F - 42.8 °F 67% 30.30 in 10.0 mi Calm Calm - N/A   Partly Cloudy
9:16 AM 55.4 °F - 42.8 °F 63% 30.29 in 10.0 mi Calm Calm - N/A   Clear
9:36 AM 55.4 °F - 44.6 °F 67% 30.29 in 10.0 mi Calm Calm - N/A   Clear
9:56 AM 57.2 °F - 44.6 °F 63% 30.29 in 10.0 mi West 4.6 mph - N/A   Clear
10:16 AM 57.2 °F - 44.6 °F 63% 30.28 in 10.0 mi SW 3.5 mph - N/A   Clear
10:36 AM 59.0 °F - 44.6 °F 59% 30.28 in 10.0 mi WSW 3.5 mph - N/A   Clear
10:56 AM 60.8 °F - 44.6 °F 55% 30.27 in 10.0 mi Calm Calm - N/A   Clear
11:16 AM 60.8 °F - 44.6 °F 55% 30.27 in 10.0 mi SW 4.6 mph - N/A   Clear
11:36 AM 62.6 °F - 44.6 °F 52% 30.27 in 10.0 mi WSW 4.6 mph - N/A   Clear
11:56 AM 62.6 °F - 44.6 °F 52% 30.27 in 10.0 mi WSW 6.9 mph - N/A   Partly Cloudy
12:16 PM 62.6 °F - 44.6 °F 52% 30.27 in 10.0 mi WSW 5.8 mph - N/A   Partly Cloudy
12:36 PM 62.6 °F - 44.6 °F 52% 30.26 in 10.0 mi SW 8.1 mph - N/A   Partly Cloudy
12:56 PM 62.6 °F - 44.6 °F 52% 30.26 in 10.0 mi SW 5.8 mph - N/A   Partly Cloudy
1:16 PM 64.4 °F - 44.6 °F 49% 30.25 in 10.0 mi WSW 5.8 mph - N/A   Partly Cloudy
1:36 PM 64.4 °F - 44.6 °F 49% 30.25 in 10.0 mi SSW 5.8 mph - N/A   Partly Cloudy
1:56 PM 64.4 °F - 44.6 °F 49% 30.25 in 10.0 mi SW 6.9 mph - N/A   Partly Cloudy
2:16 PM 64.4 °F - 44.6 °F 49% 30.25 in 10.0 mi SW 5.8 mph - N/A   Partly Cloudy
2:36 PM 66.2 °F - 44.6 °F 46% 30.25 in 10.0 mi SW 5.8 mph - N/A   Partly Cloudy
2:56 PM 64.4 °F - 44.6 °F 49% 30.25 in 10.0 mi SW 8.1 mph - N/A   Partly Cloudy
3:16 PM 66.2 °F - 44.6 °F 46% 30.25 in 10.0 mi SW 6.9 mph - N/A   Partly Cloudy
3:36 PM 66.2 °F - 44.6 °F 46% 30.24 in 10.0 mi WSW 6.9 mph - N/A   Partly Cloudy
3:56 PM 66.2 °F - 44.6 °F 46% 30.24 in 10.0 mi SW 6.9 mph - N/A   Partly Cloudy
4:16 PM 66.2 °F - 44.6 °F 46% 30.23 in 10.0 mi WSW 5.8 mph - N/A   Partly Cloudy
4:36 PM 68.0 °F - 44.6 °F 43% 30.23 in 10.0 mi SW 6.9 mph - N/A   Partly Cloudy
4:56 PM 66.2 °F - 44.6 °F 46% 30.23 in 10.0 mi WSW 6.9 mph - N/A   Clear
5:16 PM 66.2 °F - 46.4 °F 49% 30.23 in 10.0 mi SW 5.8 mph - N/A   Clear
5:36 PM 66.2 °F - 44.6 °F 46% 30.23 in 10.0 mi WSW 6.9 mph - N/A   Clear
5:56 PM 66.2 °F - 44.6 °F 46% 30.23 in 10.0 mi WSW 5.8 mph - N/A   Partly Cloudy
6:16 PM 64.4 °F - 46.4 °F 52% 30.22 in 10.0 mi WSW 4.6 mph - N/A   Partly Cloudy
6:36 PM 66.2 °F - 46.4 °F 49% 30.22 in 10.0 mi SW 8.1 mph - N/A   Partly Cloudy
6:56 PM 66.2 °F - 46.4 °F 49% 30.22 in 10.0 mi WSW 5.8 mph - N/A   Scattered Clouds
7:16 PM 64.4 °F - 46.4 °F 52% 30.22 in 10.0 mi SW 5.8 mph - N/A   Scattered Clouds
7:36 PM 64.4 °F - 44.6 °F 49% 30.22 in 10.0 mi SW 5.8 mph - N/A   Scattered Clouds
7:56 PM 64.4 °F - 46.4 °F 52% 30.22 in 10.0 mi WSW 4.6 mph - N/A   Scattered Clouds
8:16 PM 64.4 °F - 44.6 °F 49% 30.22 in 10.0 mi WSW 4.6 mph - N/A   Scattered Clouds
8:36 PM 62.6 °F - 46.4 °F 55% 30.22 in 10.0 mi WSW 3.5 mph - N/A   Scattered Clouds
8:56 PM 62.6 °F - 44.6 °F 52% 30.22 in 10.0 mi West 4.6 mph - N/A   Partly Cloudy
9:16 PM 60.8 °F - 44.6 °F 55% 30.22 in 10.0 mi Calm Calm - N/A   Partly Cloudy
9:36 PM 57.2 °F - 42.8 °F 59% 30.22 in 10.0 mi East 5.8 mph - N/A   Partly Cloudy
9:56 PM 55.4 °F - 42.8 °F 63% 30.21 in 10.0 mi East 3.5 mph - N/A   Partly Cloudy
10:16 PM 55.4 °F - 41.0 °F 58% 30.22 in 10.0 mi East 4.6 mph - N/A   Clear
10:36 PM 53.6 °F - 41.0 °F 62% 30.22 in 10.0 mi East 4.6 mph - N/A   Clear
10:56 PM 51.8 °F - 39.2 °F 62% 30.22 in 10.0 mi East 5.8 mph - N/A   Clear
11:16 PM 51.8 °F - 39.2 °F 62% 30.22 in 10.0 mi ENE 5.8 mph - N/A   Clear
11:36 PM 50.0 °F - 39.2 °F 66% 30.22 in 10.0 mi ENE 4.6 mph - N/A   Clear
11:56 PM 51.8 °F - 39.2 °F 62% 30.23 in 10.0 mi NE 4.6 mph - N/A   Clear